Wind_Speed
18 19 20 21 23 25 25 26 27 27 28 28 28 29 29 29 30 30 30 30 30 31 31 31 30 30 30 30 29 29 29 28 27 27 26 26 25 24 23 22 20 19 18 17 17 16 15 14 13 12 11 11 12 12 13 15 16 17 18 19 21 22 23 25 26 27 28 28 26 22 20 19 19 19 19 20 22 25 26 26 26 26 27 28 29
15 16 17 18 20 21 23 24 25 26 27 27 27 27 28 28 28 29 29 29 29 30 30 30 30 29 29 29 28 28 27 26 25 25 24 24 23 22 22 20 19 18 17 17 16 15 14 13 12 11 10 10 10 10 11 12 14 14 15 16 18 19 21 22 24 25 26 27 26 24 22 19 17 17 18 19 20 21 21 22 23 23 24 26 26
12 14 15 16 17 18 19 21 22 23 24 26 26 26 26 26 26 27 27 27 27 27 28 28 28 28 28 27 26 26 25 24 23 22 22 22 22 21 20 19 18 17 17 16 15 14 14 12 11 10 8 8 7 8 8 10 11 12 13 13 15 16 18 20 21 22 24 25 25 24 23 20 18 16 16 18 20 20 19 19 20 21 23 24 25
11 12 13 14 15 16 16 17 18 20 21 22 24 25 25 25 24 24 24 25 25 25 25 25 25 25 25 24 23 22 22 21 21 20 20 20 20 20 19 18 17 17 16 15 15 14 13 12 10 8 7 6 5 5 5 6 8 9 10 11 12 13 15 17 19 20 21 23 24 23 22 21 19 17 14 13 15 16 17 16 17 18 20 21 22
11 11 11 12 13 13 14 14 15 16 18 19 20 22 23 24 24 23 23 22 22 22 22 22 22 22 21 21 20 20 20 19 19 19 19 19 19 18 18 17 17 16 15 15 15 14 13 11 9 8 6 4 3 2 2 3 5 6 7 8 10 11 12 14 16 18 19 21 22 22 22 20 19 17 16 13 12 13 14 13 13 15 17 19 20
11 11 11 11 11 11 11 12 12 13 14 16 17 18 19 20 21 22 22 21 21 20 20 20 20 20 19 19 19 18 18 18 18 18 18 18 18 18 17 17 16 16 15 15 15 14 12 11 9 8 7 5 3 2 1 2 3 5 6 7 8 8 10 11 13 15 17 19 21 21 21 20 18 17 16 14 12 11 11 11 11 11 13 16 18
12 12 11 11 10 10 9 10 10 11 12 13 14 15 16 17 18 18 19 19 19 19 19 18 18 18 17 17 17 17 18 18 17 18 18 17 18 18 17 17 16 16 16 16 15 14 13 12 11 9 8 7 6 5 4 4 5 6 7 8 8 8 9 10 12 13 15 18 20 20 20 19 17 16 15 13 12 10 9 9 9 9 10 13 15
15 14 13 12 11 10 9 8 8 9 10 11 11 12 13 14 15 16 16 16 17 17 17 18 17 17 17 16 16 16 17 17 17 17 18 18 18 17 17 17 16 16 16 16 16 15 14 13 12 11 10 10 9 8 8 8 8 9 9 10 11 11 11 12 13 15 16 18 19 19 19 18 16 15 14 13 11 9 8 7 7 8 8 9 11
16 15 14 13 12 12 11 10 9 8 8 9 10 10 10 11 12 13 14 15 15 15 16 16 16 16 16 16 16 16 16 16 16 16 17 17 17 17 17 17 17 16 16 16 16 15 15 14 14 13 13 12 12 12 11 11 11 11 11 11 13 13 14 15 16 17 18 19 19 18 17 17 16 15 14 13 11 8 6 5 5 5 5 6 7
16 15 14 14 14 14 13 12 11 10 9 8 8 9 9 9 9 10 11 12 12 13 14 14 15 15 16 16 16 16 16 16 16 16 16 16 16 16 16 15 15 16 15 15 15 15 15 15 15 14 14 14 14 13 13 13 13 13 13 13 14 15 16 17 18 18 19 19 18 17 16 16 15 15 15 13 11 9 7 5 3 2 3 3 4
19 18 18 18 18 17 15 15 13 12 11 10 9 8 8 9 9 9 10 10 10 11 11 12 13 14 14 15 15 16 16 17 17 17 18 18 18 18 17 16 16 15 15 15 15 15 16 16 16 16 15 15 15 15 14 14 15 15 16 16 16 17 18 18 19 19 19 18 17 17 16 15 14 14 14 14 12 11 9 7 4 2 2 2 3
23 22 22 22 21 19 17 16 15 14 14 13 12 11 11 10 10 10 11 11 12 12 12 12 13 13 13 14 14 15 16 16 17 17 18 18 19 19 20 20 19 19 19 18 18 18 19 19 19 19 19 19 18 18 18 18 18 18 18 18 18 18 18 18 18 18 17 17 16 15 14 14 14 13 13 13 13 12 11 10 8 5 3 2 4
25 25 26 25 24 22 20 18 17 16 16 15 15 15 15 14 14 14 13 14 14 14 14 15 15 15 15 14 14 14 15 15 16 17 17 18 18 19 19 20 21 22 23 22 21 22 23 23 23 23 23 23 22 22 21 20 19 19 19 19 19 19 18 17 17 16 16 16 15 14 13 13 13 13 12 12 13 13 13 12 11 10 7 4 2
28 27 28 28 27 26 24 22 21 19 18 18 18 18 18 17 17 17 17 17 17 16 16 17 17 17 18 17 17 18 18 18 17 18 18 18 18 18 18 19 20 21 21 21 22 23 24 24 24 24 24 24 23 22 22 21 21 21 21 20 20 19 17 15 14 14 15 16 16 15 13 13 13 13 13 12 12 13 13 14 14 14 13 11 7
33 31 31 31 30 29 27 24 23 23 21 21 21 21 20 20 20 20 20 20 20 20 20 20 20 20 20 20 21 21 22 22 22 22 22 21 21 20 20 20 20 19 19 20 21 22 23 23 23 23 23 23 23 22 22 22 22 22 22 21 20 18 16 14 14 14 16 17 16 15 14 14 14 14 14 13 13 13 13 14 14 15 16 17 16
36 35 34 34 33 32 30 28 27 25 24 24 23 22 22 21 22 22 23 24 24 23 23 23 23 23 23 23 23 23 24 25 26 26 26 26 25 25 24 24 23 22 22 22 22 23 23 23 23 22 22 23 23 23 23 23 23 23 22 21 20 18 17 16 16 17 18 16 14 14 14 15 15 15 15 15 15 15 15 15 15 16 17 18 20
38 37 37 37 37 35 34 33 33 30 28 27 26 24 23 23 23 25 26 26 27 27 26 26 25 26 26 26 26 27 27 27 27 28 29 29 29 29 29 28 28 27 27 27 26 26 25 25 25 24 24 25 24 24 25 24 23 23 23 23 22 21 19 18 18 17 17 15 13 13 14 16 16 16 16 16 16 17 17 17 17 18 19 20 22
40 39 38 39 40 40 38 38 37 35 32 30 28 27 26 26 26 26 28 29 29 30 29 28 27 27 27 27 28 29 30 31 31 30 30 31 31 32 32 32 32 32 31 31 30 29 29 29 28 27 27 27 27 27 27 27 26 26 26 26 25 23 20 18 17 16 14 13 13 15 17 18 19 20 20 20 20 20 20 19 19 20 21 22 23
43 42 41 42 43 43 41 41 40 39 36 33 30 30 30 30 29 30 31 33 33 33 32 32 31 30 29 29 30 31 32 33 35 35 34 34 34 34 35 35 36 35 35 35 34 32 32 31 30 30 30 30 30 30 30 30 30 30 30 28 26 24 22 20 18 17 15 14 15 17 19 21 22 23 24 24 23 23 23 23 23 23 23 24 25
45 45 45 44 44 44 44 44 45 44 42 39 36 35 35 34 34 35 36 37 37 36 36 37 36 35 34 33 33 34 36 37 38 39 39 39 38 38 38 38 38 38 38 37 37 36 35 34 32 32 33 33 33 33 33 34 34 34 34 32 29 27 26 24 23 21 19 17 17 18 20 22 25 26 27 27 27 27 26 26 26 27 27 28 28
46 47 47 46 45 45 46 47 46 45 45 44 42 41 41 41 41 41 40 39 39 40 40 41 40 39 38 36 35 36 38 40 41 41 42 43 42 41 42 42 41 40 40 40 40 39 38 37 36 36 36 36 36 37 37 38 38 38 37 36 33 33 32 29 27 26 24 22 21 21 23 26 28 30 31 31 30 30 30 30 30 30 31 32 33
44 44 46 48 48 47 46 46 46 46 47 47 47 47 46 46 47 46 44 43 43 44 44 43 43 42 40 38 38 37 38 40 42 43 43 45 45 45 45 46 46 45 43 43 43 42 41 40 40 40 40 40 40 41 42 43 42 41 41 39 38 38 38 35 33 31 29 27 25 26 28 30 31 32 34 34 34 33 33 34 34 34 35 36 37
49 45 44 46 48 48 47 46 46 49 51 52 51 51 50 49 49 50 49 49 49 49 48 47 46 46 44 42 42 42 42 42 44 44 44 45 46 47 48 49 50 50 48 47 47 46 45 44 44 44 44 44 44 46 47 47 46 45 44 43 44 44 43 41 39 36 34 32 30 30 31 31 32 33 34 35 36 36 37 38 39 39 40 41 42
57 56 53 50 48 46 46 46 46 49 53 54 54 55 55 53 52 53 54 53 53 53 52 50 49 50 49 47 47 48 49 49 50 49 47 47 47 48 49 50 52 52 52 51 51 51 50 49 48 48 48 48 49 50 51 52 52 51 49 49 50 50 48 46 45 42 40 38 36 35 35 34 35 37 39 39 39 39 40 41 42 44 44 45 46
59 60 60 58 54 49 46 47 49 51 54 56 57 58 59 59 58 57 57 56 55 55 54 53 52 53 53 52 52 52 53 55 57 55 52 50 49 49 50 51 53 54 55 55 55 55 54 53 52 52 52 52 53 54 55 56 56 56 55 55 55 54 53 52 52 51 49 46 44 43 42 42 43 45 46 47 46 46 45 45 46 47 48 49 51
63 61 60 59 58 55 51 52 54 55 57 59 60 61 61 63 63 62 61 60 58 58 58 58 57 56 57 57 58 57 56 59 62 60 57 54 53 51 51 52 54 56 57 58 59 59 59 58 58 58 58 58 58 58 59 60 61 60 59 58 57 57 57 57 57 58 59 58 55 52 51 52 52 53 54 55 55 54 54 53 52 52 52 52 53
69 67 64 61 59 59 58 58 60 62 63 63 63 63 63 64 65 65 65 64 63 62 62 62 61 60 61 62 63 63 62 62 64 63 61 59 57 56 55 55 57 59 60 61 62 62 63 63 64 64 64 64 63 62 62 62 62 63 63 62 61 60 60 59 59 60 63 64 64 62 60 60 61 60 60 61 61 62 62 62 61 60 59 58 58
73 72 70 66 63 62 63 65 65 66 68 68 67 66 66 66 66 67 67 67 67 67 66 66 65 64 64 66 67 67 67 65 65 65 65 63 63 63 63 61 61 62 63 63 64 65 66 66 67 68 69 68 67 66 65 64 64 64 65 66 65 65 64 63 63 63 63 65 67 68 68 67 67 66 66 66 67 67 68 68 69 69 69 68 66
77 76 74 72 70 69 69 70 71 70 71 72 71 69 68 68 69 70 69 68 69 70 70 70 69 68 67 68 70 71 71 69 68 68 69 69 69 69 69 69 67 66 65 65 66 68 69 70 70 71 71 71 70 69 68 68 68 68 68 69 70 70 70 69 69 69 69 69 69 71 72 72 72 73 73 73 73 73 73 74 74 75 76 76 76
82 80 79 78 78 76 75 75 76 76 75 75 75 73 72 71 72 73 73 73 72 72 73 72 72 72 71 72 73 75 75 74 73 73 73 74 74 74 74 74 73 71 70 70 70 71 72 73 74 74 74 74 74 73 71 71 71 72 72 73 75 76 77 77 77 77 77 77 76 75 76 77 78 79 80 80 80 80 80 80 81 82 82 83 84
85 84 83 82 83 83 81 80 81 81 80 80 79 78 77 76 76 76 76 77 77 77 77 77 76 76 76 76 76 77 78 78 77 76 76 76 77 77 77 78 78 77 77 76 76 75 74 75 76 78 78 78 78 78 77 77 76 75 76 78 80 81 82 83 84 85 85 85 84 83 82 82 83 84 85 85 86 86 87 87 87 88 88 89 89
87 87 86 85 85 86 86 85 85 85 85 85 85 84 83 82 81 80 80 81 82 82 82 82 82 81 81 81 81 81 82 82 81 80 79 79 79 80 80 80 81 81 83 83 82 80 78 76 77 79 81 83 83 84 84 84 83 82 81 82 83 85 86 88 89 90 91 91 92 91 91 91 91 91 91 91 91 91 92 92 92 92 92 93 94
91 91 90 89 88 88 89 89 89 88 89 89 89 89 89 89 87 86 85 86 86 86 86 87 87 87 86 86 86 86 86 86 86 86 86 85 85 85 84 84 84 84 86 86 86 85 83 81 81 81 82 84 86 87 88 89 89 88 87 87 87 89 90 91 92 93 94 95 96 97 97 98 98 98 97 97 96 96 96 96 96 96 96 97 98
94 94 94 93 93 93 93 93 93 92 91 92 92 92 93 93 93 92 91 91 91 92 92 93 93 92 91 90 91 91 91 91 91 91 91 91 92 91 91 90 89 88 88 89 89 89 88 87 86 85 85 85 87 88 89 90 90 91 90 90 91 92 92 93 94 95 97 98 99 100 101 101 102 102 102 102 102 102 102 101 101 101 102 103 105
98 98 97 97 97 97 98 98 98 97 96 96 95 95 95 96 96 96 96 95 96 97 98 98 98 98 97 96 95 96 96 97 96 96 96 96 96 97 97 96 94 93 92 91 92 92 93 93 93 92 91 90 90 90 91 92 92 93 94 94 95 96 97 98 98 98 99 100 101 102 103 104 106 106 107 107 107 107 107 107 108 109 110 112 113
103 102 101 101 101 101 101 102 103 103 102 101 100 99 99 99 99 99 99 99 99 100 101 102 102 102 102 102 101 101 102 102 102 102 102 102 102 102 102 102 100 98 96 96 96 96 97 98 98 98 98 97 97 97 97 97 97 98 98 99 99 100 101 101 102 102 102 103 104 105 107 108 110 111 112 112 112 113 113 113 115 116 118 119 119
105 105 105 105 104 104 104 104 105 106 106 105 104 104 103 102 102 102 102 102 103 103 104 105 106 106 106 106 106 106 106 107 107 107 108 108 107 107 107 107 106 104 102 101 101 101 102 102 103 103 104 104 104 104 104 104 104 104 104 105 105 105 106 106 106 106 107 108 109 109 111 112 114 116 117 118 119 119 120 121 122 123 124 124 124
105 106 106 107 107 107 107 107 108 108 108 108 108 108 108 108 108 108 108 108 108 108 108 108 109 109 109 109 109 109 109 109 110 110 110 110 110 110 110 110 110 109 108 107 107 107 107 107 107 108 108 109 109 109 109 109 109 110 110 110 110 111 111 112 112 112 112 112 113 114 115 117 119 121 122 123 123 124 124 125 127 128 128 128 128
107 107 107 108 109 109 110 111 111 112 112 112 112 112 112 112 112 112 112 112 112 112 112 112 112 112 113 113 112 112 112 112 112 112 113 113 113 113 113 114 113 113 113 113 113 113 113 113 113 113 113 113 114 114 114 115 115 115 116 116 116 116 117 117 117 118 118 119 120 121 122 124 125 127 127 127 127 127 128 128 130 130 131 132 132
113 112 112 111 111 112 113 113 114 115 116 117 117 117 117 117 117 117 117 117 116 116 115 115 115 115 116 116 116 116 116 115 115 115 115 116 116 117 117 117 118 118 118 118 118 118 118 118 118 118 118 118 119 119 119 120 120 120 121 121 122 122 122 122 122 122 123 125 126 128 129 130 131 132 132 132 133 133 133 133 134 134 135 136 136
120 120 119 118 118 117 117 117 117 118 119 120 121 121 122 122 123 123 122 122 122 121 121 120 119 119 119 120 120 120 120 120 120 120 120 120 120 120 120 121 121 121 122 122 122 122 122 122 122 121 121 121 122 122 123 124 124 125 125 126 126 127 127 127 128 128 129 130 131 132 133 133 134 134 135 136 136 137 137 137 137 138 139 140 140
127 126 126 125 125 124 124 123 123 123 124 124 124 124 125 125 126 126 126 126 126 126 126 126 126 126 126 126 125 125 125 125 125 124 124 124 124 125 125 125 125 125 125 125 126 126 126 126 126 125 124 124 123 123 123 124 124 125 126 126 127 128 129 129 130 130 131 132 133 134 135 136 136 137 138 139 139 140 140 141 141 142 142 143 143
131 132 132 132 132 131 131 131 131 131 131 131 130 130 130 130 130 130 130 130 130 130 130 130 130 130 130 131 131 131 131 132 131 131 130 130 130 130 130 130 130 130 130 130 131 131 131 131 131 130 130 129 129 128 128 128 128 129 129 129 130 130 131 132 133 134 135 135 136 137 138 139 139 140 141 142 143 143 144 145 145 145 146 146 146
129 131 133 135 136 137 137 137 138 138 138 138 138 137 137 137 137 137 136 136 135 135 135 135 135 135 135 135 135 135 135 136 136 136 136 135 135 135 135 135 135 135 136 135 136 136 136 136 136 136 136 136 136 136 136 136 136 136 136 137 137 137 138 139 140 141 142 142 143 144 144 145 146 146 147 147 148 149 149 150 150 151 151 151 151
125 127 130 132 135 137 139 140 142 143 143 144 144 144 144 144 143 143 143 143 142 142 142 142 142 142 142 142 142 142 142 142 141 141 141 141 141 141 141 141 141 141 142 142 142 143 143 143 143 143 143 143 143 143 143 143 144 144 144 144 145 146 147 147 148 149 149 150 151 152 153 154 155 156 156 157 157 157 157 157 157 157 157 157 157
123 125 127 129 131 133 135 138 140 142 144 145 147 148 149 149 149 149 149 149 148 148 148 148 148 148 148 148 148 148 148 148 148 148 148 148 148 148 148 148 148 148 149 149 149 150 150 151 151 151 151 151 151 151 151 151 151 151 152 152 153 154 155 156 157 157 158 158 159 160 160 161 162 162 163 163 163 162 162 162 161 161 161 160 160
121 123 125 126 128 130 132 134 136 138 140 142 144 146 147 149 150 151 152 152 153 153 153 154 154 154 154 154 154 154 154 154 154 154 154 155 155 155 155 155 156 156 156 156 157 157 157 158 158 159 159 159 159 159 159 159 159 159 160 160 161 161 162 163 164 165 166 166 166 167 167 167 167 167 166 166 166 165 165 164 164 163 162 162 162
119 121 123 125 126 128 130 132 133 135 137 139 140 142 143 144 146 147 148 149 150 152 153 154 155 156 157 157 158 158 158 159 159 159 159 160 160 160 161 162 162 162 163 163 163 164 164 164 165 165 165 166 166 166 166 166 166 166 166 166 167 167 167 168 168 169 169 169 169 169 169 168 168 168 167 167 166 166 165 164 164 164 163 163 163
114 117 119 122 124 126 128 130 131 133 135 137 138 139 140 141 142 143 144 145 146 147 148 149 150 151 152 153 154 155 156 156 157 157 158 158 159 160 160 161 162 162 163 163 164 164 165 165 166 167 167 167 167 167 167 167 167 167 167 167 167 167 167 167 167 167 167 167 167 167 166 166 166 165 165 165 164 164 164 164 163 163 163 163 163
107 110 113 116 118 121 123 126 128 130 132 134 136 137 138 139 140 140 141 142 143 144 145 145 146 147 148 149 150 151 151 152 153 153 154 154 155 156 156 157 158 158 159 159 160 160 161 162 162 163 163 163 164 164 164 164 164 164 164 164 164 164 164 164 164 164 164 164 164 164 164 164 164 163 163 163 163 163 163 163 162 162 162 162 162
101 104 107 110 112 115 118 120 123 125 128 130 131 133 134 135 136 137 138 138 139 140 141 142 143 144 145 146 146 147 147 148 149 149 150 151 151 152 152 153 154 154 155 155 156 156 157 158 158 159 159 159 160 160 160 160 160 160 160 160 160 160 160 160 160 160 161 161 160 160 160 160 160 160 159 159 159 158 158 157 157 156 156 155 154
Wind_Direction
81 80 79 79 80 82 84 88 91 92 94 96 98 100 102 105 109 112 115 118 121 125 129 133 136 138 140 142 145 148 150 151 152 153 154 155 156 156 155 155 154 153 153 152 150 148 144 140 137 131 126 120 111 103 95 88 82 75 70 67 64 62 59 56 55 54 54 54 54 55 58 61 64 65 63 65 67 65 60 60 67 73 72 72 70
89 85 84 82 81 82 84 87 91 94 96 98 99 102 104 107 111 115 118 121 124 127 130 134 137 140 142 145 147 150 151 152 154 155 156 158 160 160 160 160 160 159 158 158 158 156 153 149 146 140 134 126 115 106 99 90 83 75 69 66 63 60 57 54 51 49 49 50 50 49 47 47 48 50 52 55 57 65 69 62 62 73 76 75 76
103 96 91 87 85 83 83 85 89 94 98 101 103 105 107 109 112 116 121 124 127 130 133 136 139 141 144 146 148 150 152 154 155 157 160 162 164 165 166 166 166 165 166 167 167 166 163 159 156 150 142 133 119 108 100 89 79 73 69 64 60 55 52 48 46 44 43 43 44 46 46 44 43 44 53 59 56 62 74 65 58 67 72 71 72
122 114 105 98 94 91 88 87 88 92 97 102 106 109 112 114 116 119 122 126 130 133 136 139 142 144 146 148 150 152 153 155 158 160 163 166 167 169 171 172 172 173 174 176 177 175 173 169 167 163 158 147 131 109 93 80 71 65 63 60 56 50 45 41 40 37 36 35 35 38 41 43 43 41 44 54 54 59 69 64 55 60 64 65 64
141 133 125 116 108 102 98 96 94 94 96 100 105 111 116 120 123 125 127 130 133 137 140 143 145 147 149 152 153 155 157 159 161 164 166 169 171 173 176 177 179 181 182 185 186 186 184 183 181 181 177 172 161 130 84 59 51 47 47 48 45 43 39 34 31 29 27 26 26 28 32 37 41 41 39 42 49 55 60 60 59 59 55 54 53
159 152 145 136 127 120 113 109 107 105 103 103 106 110 116 122 127 131 134 137 140 142 145 148 151 153 155 157 159 161 164 166 168 170 172 175 177 180 182 184 185 188 190 192 195 197 199 200 200 201 202 204 211 224 286 353 0 5 12 17 19 23 26 24 20 18 17 18 18 19 22 27 34 38 37 37 43 50 52 55 60 60 52 47 47
177 172 165 157 149 141 134 127 123 119 116 114 112 113 117 122 128 134 140 144 148 151 154 156 159 161 164 166 168 170 172 174 176 178 180 182 184 186 187 189 191 192 195 198 203 208 211 213 214 218 224 231 241 257 277 299 314 324 332 337 342 349 357 2 4 4 4 5 8 10 12 15 21 29 34 34 37 43 47 49 50 46 41 41 43
192 189 182 176 171 165 158 152 144 139 134 130 128 125 125 127 131 136 143 149 155 160 164 167 169 171 174 176 178 179 180 182 183 184 186 187 189 190 192 194 195 197 200 203 207 214 220 225 228 232 239 246 255 266 277 285 291 301 309 314 318 324 333 339 344 348 349 352 356 0 3 6 9 16 23 28 31 36 39 42 40 36 32 35 39
203 201 196 192 188 183 179 175 170 164 157 152 148 146 145 144 143 145 149 153 160 167 173 177 180 183 185 187 189 190 191 191 191 191 191 191 192 193 194 196 198 200 203 207 211 216 223 230 236 240 245 250 257 265 272 277 282 287 294 300 304 310 318 324 330 334 337 341 346 352 355 356 358 1 7 15 22 28 33 36 38 36 33 32 34
211 210 208 206 204 198 192 190 187 183 180 176 173 169 168 169 166 165 165 165 168 172 176 182 186 189 193 197 200 203 203 204 204 203 203 202 201 200 200 201 204 205 206 210 214 218 225 231 237 242 245 250 254 260 265 270 275 279 283 287 292 300 307 313 320 324 328 332 339 344 347 348 350 351 353 359 6 10 12 17 25 35 38 39 38
214 215 215 215 213 208 203 200 197 195 194 195 195 194 193 193 192 192 191 190 190 190 190 193 193 194 196 199 204 208 211 214 214 215 216 215 215 214 213 214 216 217 218 221 224 226 229 233 239 242 246 249 253 257 260 264 269 275 279 282 287 294 301 307 313 318 322 328 333 338 341 342 344 345 345 347 353 355 355 354 353 357 24 49 53
215 216 217 219 217 214 211 209 207 205 205 205 207 209 212 212 214 216 214 212 212 211 212 216 216 212 209 208 209 210 212 214 216 218 222 223 224 224 224 224 226 228 229 231 235 239 240 241 244 247 251 254 256 258 261 265 269 273 277 281 286 292 298 304 309 314 319 325 330 334 339 339 340 342 342 342 343 345 345 344 339 333 346 46 73
221 220 220 222 221 218 216 215 215 215 215 216 216 217 218 219 222 226 229 229 227 223 223 227 230 231 230 228 228 228 226 223 219 219 222 223 225 226 228 228 229 231 232 233 236 243 246 247 249 251 254 257 260 262 265 267 270 273 276 280 285 291 297 302 307 313 319 324 327 330 334 336 337 339 342 342 341 339 339 338 334 329 327 340 60
227 227 227 227 225 222 219 217 217 219 221 225 228 229 228 228 228 230 233 236 237 236 234 234 236 237 238 238 239 240 242 240 236 232 230 229 228 227 227 228 229 231 234 234 234 239 243 247 248 250 253 256 259 262 265 267 269 272 275 279 284 289 295 300 306 312 317 320 321 321 324 327 328 330 334 336 337 336 334 333 331 326 322 319 318
230 230 230 231 231 229 227 225 224 224 225 227 231 235 237 239 240 240 239 240 241 242 242 243 242 242 242 242 242 243 245 247 247 246 244 242 241 239 236 236 236 235 235 235 235 237 240 243 246 248 251 255 257 261 263 266 269 271 274 277 281 284 289 293 298 302 307 311 313 315 318 322 322 321 323 326 328 328 327 326 324 320 317 313 310
232 233 233 233 234 234 235 237 238 236 234 234 235 238 242 244 247 248 247 246 244 243 243 244 245 246 246 245 245 246 248 249 250 251 252 251 250 249 246 246 246 243 239 239 240 241 242 244 246 248 251 254 257 259 262 264 267 269 272 274 277 280 282 285 290 294 298 302 305 309 316 320 320 318 317 317 318 318 318 317 314 311 308 306 304
235 236 238 238 237 236 237 239 240 240 240 243 245 247 248 248 248 250 252 252 250 248 246 245 245 247 248 249 249 249 250 250 252 253 254 254 254 254 252 251 250 249 247 246 246 245 246 247 247 248 250 252 255 257 259 260 262 265 269 273 274 275 277 281 286 290 290 290 294 303 311 315 316 316 314 313 313 312 311 310 307 305 303 302 301
236 237 239 241 240 238 238 239 240 240 241 245 248 250 252 254 254 255 257 258 255 252 251 250 249 249 249 251 252 252 252 251 252 254 255 256 256 256 255 254 252 251 251 251 250 250 250 250 249 250 251 252 253 254 254 255 257 262 267 270 270 270 272 276 281 283 280 278 285 296 303 305 307 308 308 308 307 306 305 304 304 303 302 301 301
237 237 238 239 240 240 240 241 242 242 242 242 243 244 248 252 255 258 261 261 258 254 251 251 251 250 251 253 254 254 253 251 250 251 252 254 255 256 256 256 255 253 252 252 252 252 253 252 252 252 252 253 252 252 252 253 256 261 265 266 263 262 264 267 268 269 268 269 277 288 293 295 297 299 300 301 302 302 302 301 301 300 300 299 298
239 239 239 240 242 242 241 241 242 243 243 243 241 239 240 242 245 251 255 258 260 258 253 250 250 250 251 254 256 256 255 253 250 248 248 250 252 254 255 256 256 255 254 253 252 252 252 252 251 251 251 252 253 253 254 255 257 261 263 261 256 255 257 258 258 258 258 261 269 278 283 285 289 292 293 294 295 296 298 299 299 299 298 297 295
240 242 243 242 242 243 243 243 244 245 246 245 243 242 240 239 241 245 250 255 260 261 258 253 251 251 251 253 256 256 255 255 254 251 249 248 249 251 253 254 255 256 256 255 254 252 251 251 250 250 250 251 253 254 256 257 258 260 260 258 254 251 252 252 252 253 254 258 265 272 275 278 283 287 288 288 289 290 292 294 295 297 297 297 296
238 241 243 243 243 245 246 246 247 247 248 247 245 244 244 244 243 245 248 251 255 259 259 255 252 252 251 251 252 253 254 256 256 255 253 250 249 250 251 253 254 255 256 256 255 253 251 250 250 250 250 251 253 255 256 257 258 259 260 259 256 254 255 255 253 252 254 260 264 265 267 272 278 282 285 286 287 287 288 289 291 292 293 295 295
234 236 238 240 243 245 246 246 247 248 248 247 245 244 245 245 245 246 248 249 252 255 256 255 252 252 252 250 249 248 250 253 256 256 256 254 252 251 252 253 253 254 255 255 255 253 251 250 250 251 251 253 255 256 258 259 261 262 263 263 261 260 260 260 258 255 256 259 260 260 264 272 278 282 285 287 288 288 288 289 289 290 291 292 293
233 235 237 238 240 242 244 247 249 249 248 246 244 244 244 245 246 247 248 250 251 253 254 253 252 251 251 250 249 248 249 252 255 257 258 258 256 254 253 253 254 254 255 255 255 254 253 252 251 252 253 254 256 258 260 262 264 265 264 263 262 261 261 260 260 258 257 258 258 259 264 271 277 281 285 287 289 289 289 289 289 290 290 291 292
233 236 238 239 238 238 239 240 242 246 249 248 245 244 244 246 247 248 249 250 251 251 252 251 250 250 250 250 250 250 251 253 255 256 257 258 257 256 255 255 255 255 255 256 257 257 256 254 253 254 255 257 258 259 261 262 263 264 265 264 264 264 264 263 263 262 262 260 260 261 265 270 275 279 282 284 286 287 288 289 289 290 290 291 291
233 235 238 239 237 234 234 234 234 237 244 248 247 246 245 246 248 249 249 249 250 250 251 251 250 251 251 251 251 251 252 253 254 255 256 257 256 255 255 257 258 258 257 257 257 258 258 256 255 255 257 258 260 261 262 263 263 264 265 265 266 267 268 268 268 268 268 265 264 265 269 272 275 277 279 281 282 284 285 286 287 288 289 289 290
234 235 236 237 236 233 231 232 232 235 239 244 246 246 246 246 247 248 249 248 247 248 250 251 251 251 251 250 250 251 252 252 253 253 255 256 256 254 254 258 262 263 262 260 258 257 258 258 258 258 259 260 262 263 264 264 264 264 265 265 266 266 267 269 270 271 271 269 267 267 269 272 275 276 277 278 279 280 282 283 284 285 286 286 287
234 234 235 236 236 234 232 232 234 235 238 241 243 245 246 247 248 248 249 248 247 247 249 250 251 251 251 250 249 250 251 252 251 252 253 254 255 254 255 259 264 265 264 263 261 259 258 258 259 261 262 264 265 267 267 267 266 266 266 266 267 267 267 268 269 270 271 271 270 268 268 270 273 274 276 277 277 279 280 282 282 283 283 284 285
234 233 234 235 236 236 235 235 235 237 238 240 242 243 244 246 248 249 249 249 248 248 249 250 251 252 252 251 249 249 249 249 249 249 250 252 254 254 255 258 262 264 263 264 264 263 261 260 261 262 263 264 266 267 269 269 269 268 268 267 267 267 267 267 268 268 269 271 271 271 270 269 271 273 275 276 277 278 279 281 282 283 284 284 285
236 235 236 237 237 237 237 237 238 239 240 241 242 243 243 245 247 248 249 249 249 249 250 250 251 251 252 252 251 249 248 248 248 248 248 250 253 254 256 258 261 262 262 263 265 265 264 263 263 263 264 265 266 266 267 268 270 271 271 271 271 270 270 270 270 270 271 271 272 271 270 269 270 271 273 275 276 277 278 280 281 283 284 285 285
238 238 238 238 238 238 239 239 239 240 240 241 243 244 245 245 246 247 248 250 250 250 250 251 252 252 252 252 252 251 250 250 250 250 250 251 253 255 256 259 260 261 262 264 265 265 264 264 264 264 264 265 266 267 267 267 268 268 270 271 271 272 273 273 274 274 275 275 275 274 273 271 271 272 273 275 276 277 278 279 280 281 282 283 285
238 239 239 239 238 239 240 241 241 241 241 241 243 244 245 246 246 246 247 248 249 250 250 251 252 253 253 253 252 251 251 251 252 252 253 253 254 255 257 259 260 262 264 265 265 264 263 263 263 263 263 264 265 265 266 267 267 267 267 268 269 270 271 272 273 274 275 275 276 276 275 274 274 274 274 275 275 276 277 277 278 279 281 282 283
237 238 240 240 240 239 239 241 242 242 242 243 243 244 245 246 247 246 246 247 248 249 250 251 251 253 254 254 253 252 252 252 252 253 254 255 256 256 257 258 259 262 264 265 265 264 263 264 264 264 264 264 264 264 264 265 265 266 266 267 268 268 269 270 271 272 273 274 275 275 275 275 274 274 274 274 274 275 275 276 277 278 279 281 282
237 238 239 240 241 241 240 240 241 242 243 244 244 244 245 246 247 248 248 248 248 249 250 251 252 252 253 253 253 253 253 254 254 255 255 256 256 257 257 258 259 261 263 264 264 264 264 265 266 266 266 266 265 265 265 265 265 265 266 267 268 268 269 270 272 273 274 275 275 275 275 275 275 274 274 274 274 274 274 275 276 277 279 280 281
238 238 239 240 241 241 242 242 242 242 243 244 245 245 246 246 247 248 249 249 250 250 251 252 253 254 254 254 254 254 254 255 255 256 256 256 257 257 258 258 259 261 262 263 263 264 265 266 266 267 267 267 266 266 266 266 266 266 267 268 269 270 271 272 272 273 274 275 275 276 276 276 276 275 275 275 275 275 275 276 276 278 279 280 281
238 239 240 241 241 241 242 243 243 244 244 245 246 246 246 247 247 248 249 250 250 251 252 252 254 255 255 255 256 255 255 256 256 256 257 258 258 258 258 258 259 260 261 262 263 264 265 265 266 266 267 267 267 267 267 267 267 268 268 268 269 269 270 270 271 272 273 274 275 276 276 277 277 277 276 276 275 275 275 276 277 278 279 280 281
238 239 240 241 242 242 242 242 243 244 244 245 246 247 247 248 248 249 249 250 251 251 252 253 253 255 256 256 257 257 257 257 257 257 258 259 259 260 260 260 260 260 261 262 263 264 265 265 265 265 265 266 267 267 268 268 269 269 269 269 269 269 269 269 270 270 271 272 274 274 275 276 276 277 277 277 277 277 277 277 278 278 279 279 280
237 238 240 241 242 243 243 244 244 244 245 246 247 247 248 249 249 250 250 251 252 252 253 253 253 254 255 256 257 257 258 258 258 258 259 260 260 261 261 261 262 262 263 263 264 265 265 265 265 265 265 265 265 266 266 267 267 268 268 268 269 269 269 269 269 269 270 271 272 273 274 275 275 276 276 277 277 277 277 277 277 278 278 278 278
238 238 239 240 241 242 243 244 244 245 246 247 247 248 249 249 250 250 251 252 252 253 253 254 254 254 255 255 256 257 257 258 259 259 259 260 260 261 261 261 262 262 263 264 264 265 265 265 265 265 265 265 265 265 265 265 266 266 266 267 267 268 269 269 269 269 270 270 271 272 274 274 275 275 275 276 276 276 276 276 277 277 278 278 278
241 240 240 241 241 241 242 242 243 244 245 246 247 248 249 249 250 250 251 251 252 252 253 253 253 254 254 255 255 256 256 257 258 258 259 259 260 260 261 261 261 262 262 263 263 264 264 264 264 265 264 264 264 265 265 265 265 265 266 266 266 267 267 268 269 269 269 270 271 272 273 274 274 275 275 275 275 275 276 276 277 277 277 278 278
242 243 243 243 243 243 243 243 244 244 245 245 246 247 248 249 249 250 250 251 251 252 252 253 253 254 254 254 255 255 256 256 257 257 258 258 259 259 259 260 260 261 261 262 262 262 263 263 263 263 263 264 264 264 264 265 265 265 266 266 266 266 267 267 268 269 269 270 271 271 272 272 273 273 274 274 275 275 275 276 276 276 277 277 277
243 244 245 245 246 246 246 246 246 247 247 247 247 247 248 248 249 249 250 251 251 252 252 252 253 254 254 255 255 255 255 256 256 256 257 257 258 258 258 259 259 259 260 260 261 261 261 261 261 262 262 263 263 264 264 265 265 266 266 267 267 267 267 267 268 268 269 270 270 270 271 271 271 272 272 273 273 274 274 275 275 275 276 276 276
245 245 246 246 247 248 248 249 249 249 250 250 250 250 250 251 251 251 251 251 252 252 252 252 253 253 254 255 255 256 256 256 257 257 257 257 257 257 258 258 259 259 259 260 260 260 261 261 261 262 262 262 263 263 263 264 265 265 266 267 267 268 268 268 269 270 270 271 271 271 272 272 272 273 273 273 273 274 274 274 275 275 275 276 276
247 247 247 247 248 248 249 250 250 251 251 252 252 252 253 253 253 254 254 254 254 254 254 254 254 255 255 255 256 257 257 257 258 258 258 258 258 258 258 259 259 260 260 260 261 261 261 262 262 262 263 263 264 264 264 265 265 266 266 267 268 268 268 269 270 271 272 272 273 273 274 274 274 275 275 275 275 275 275 275 275 275 276 276 276
250 250 250 250 250 250 250 251 251 251 252 252 253 253 254 254 255 255 255 256 256 256 257 257 257 258 258 258 258 259 259 260 260 260 261 261 261 261 261 261 261 261 261 262 262 263 263 263 264 264 264 264 265 265 265 266 266 267 267 268 269 269 270 270 271 271 272 272 273 274 274 275 275 276 276 276 277 277 277 277 277 277 277 277 277
252 252 252 253 253 253 253 253 253 253 253 253 254 254 254 255 255 255 256 256 257 257 257 258 258 259 260 260 260 261 261 262 262 262 263 263 264 264 264 264 264 264 264 264 264 265 265 265 266 266 267 267 267 267 267 268 268 268 268 269 269 270 271 271 272 272 273 273 274 274 275 275 276 276 277 277 277 277 278 278 278 278 278 278 278
254 254 254 254 255 255 255 255 255 255 255 255 255 255 256 256 256 256 257 257 257 258 258 258 259 259 260 260 261 261 262 262 262 263 263 264 264 265 265 265 266 266 266 266 266 266 267 267 267 268 268 269 269 269 269 270 270 270 270 270 270 271 271 272 272 273 273 274 274 275 275 276 276 276 276 277 277 277 277 278 278 278 278 278 279
255 255 255 256 256 256 257 257 257 257 258 258 258 258 258 258 258 258 258 259 259 259 259 260 260 260 261 261 261 262 262 262 263 263 263 264 264 264 265 265 266 266 266 266 267 267 267 268 268 268 269 269 269 270 270 270 271 271 271 271 271 272 272 272 273 273 274 274 274 275 275 275 275 275 276 276 276 277 277 277 277 278 278 278 279
256 256 256 257 257 257 258 258 258 259 259 259 259 260 260 260 260 260 261 261 261 261 261 262 262 262 262 262 263 263 263 263 264 264 264 264 265 265 265 265 266 266 266 267 267 267 267 268 268 268 269 269 269 270 270 270 270 271 271 271 272 272 272 273 273 273 274 274 274 274 275 275 275 275 276 276 276 276 277 277 277 277 278 278 278
257 257 258 258 258 259 259 259 260 260 260 260 261 261 262 262 262 263 263 263 263 263 263 264 264 264 264 264 265 265 265 265 265 265 265 266 266 266 266 266 266 267 267 267 267 268 268 268 268 269 269 269 270 270 270 270 271 271 271 271 272 272 272 273 273 273 274 274 274 274 275 275 275 275 276 276 276 276 277 277 277 277 277 278 278
258 259 259 259 259 260 260 261 261 261 262 262 263 263 263 264 264 264 265 265 265 265 266 266 266 266 266 266 267 267 267 267 267 267 267 267 267 267 267 268 268 268 268 268 268 268 269 269 269 269 270 270 270 270 271 271 271 272 272 272 272 272 273 273 273 273 274 274 274 274 274 275 275 275 275 276 276 276 276 277 277 277 277 278 278
Height
10994 10994 10993 10993 10993 10992 10992 10991 10991 10990 10990 10990 10989 10989 10989 10989 10990 10991 10992 10993 10994 10995 10996 10998 10999 11001 11002 11004 11005 11007 11008 11010 11011 11013 11014 11015 11015 11016 11017 11017 11017 11017 11017 11017 11018 11018 11018 11019 11019 11019 11018 11018 11019 11018 11018 11018 11017 11016 11016 11015 11015 11014 11014 11013 11012 11012 11011 11010 11009 11008 11007 11006 11005 11004 11003 11002 11002 11001 11001 11000 10999 10997 10996 10995 10994
10996 10995 10995 10995 10995 10995 10994 10994 10994 10993 10993 10993 10993 10993 10993 10993 10994 10995 10996 10997 10998 10998 10999 11000 11002 11003 11004 11005 11007 11008 11010 11011 11013 11014 11015 11016 11017 11017 11018 11018 11018 11018 11018 11019 11019 11019 11019 11020 11020 11020 11020 11020 11020 11020 11019 11019 11018 11018 11017 11017 11016 11016 11015 11015 11014 11013 11013 11012 11011 11010 11009 11008 11007 11006 11005 11004 11003 11003 11003 11002 11002 11001 10999 10998 10997
10997 10997 10997 10997 10997 10997 10997 10997 10996 10996 10996 10996 10996 10996 10996 10997 10997 10998 10999 11000 11001 11002 11002 11003 11004 11005 11006 11008 11009 11010 11012 11013 11014 11015 11016 11017 11017 11018 11018 11019 11019 11019 11019 11019 11020 11020 11020 11020 11021 11021 11021 11021 11021 11021 11020 11020 11020 11019 11018 11018 11017 11017 11016 11016 11015 11015 11015 11014 11013 11012 11011 11010 11009 11008 11007 11006 11006 11005 11005 11004 11004 11003 11002 11001 11000
10997 10998 10998 10998 10998 10998 10998 10998 10999 10998 10998 10998 10998 10998 10999 10999 11000 11001 11002 11003 11004 11004 11005 11006 11007 11008 11009 11010 11011 11012 11013 11014 11015 11016 11017 11018 11018 11019 11019 11020 11020 11020 11020 11020 11020 11021 11021 11021 11021 11021 11021 11021 11021 11021 11021 11021 11020 11020 11019 11019 11018 11018 11017 11017 11017 11016 11016 11015 11014 11014 11013 11012 11011 11010 11009 11008 11008 11007 11007 11006 11006 11005 11004 11003 11003
10997 10998 10998 10998 10998 10999 10999 10999 11000 11000 11000 11000 11000 11001 11001 11001 11002 11003 11004 11005 11006 11007 11008 11008 11009 11010 11011 11012 11013 11013 11014 11015 11016 11017 11018 11018 11019 11019 11020 11020 11020 11021 11021 11021 11021 11021 11022 11022 11022 11022 11022 11022 11022 11022 11022 11021 11021 11021 11020 11020 11019 11019 11018 11018 11017 11017 11016 11016 11015 11015 11014 11013 11012 11011 11010 11010 11009 11009 11008 11008 11007 11007 11006 11005 11004
10997 10997 10998 10998 10998 10999 10999 11000 11000 11001 11001 11002 11002 11003 11003 11003 11004 11004 11005 11006 11007 11008 11009 11010 11010 11011 11012 11012 11013 11014 11015 11015 11016 11017 11017 11018 11018 11019 11019 11020 11020 11021 11021 11021 11022 11022 11022 11022 11022 11022 11022 11022 11022 11022 11022 11021 11021 11021 11020 11020 11020 11019 11019 11018 11018 11017 11017 11016 11015 11015 11014 11014 11013 11012 11011 11011 11010 11010 11009 11009 11008 11008 11007 11006 11005
10996 10997 10997 10997 10998 10998 10999 11000 11001 11001 11002 11002 11003 11003 11004 11005 11005 11006 11006 11007 11008 11008 11009 11010 11011 11011 11012 11012 11013 11013 11014 11015 11016 11016 11017 11017 11018 11018 11019 11019 11020 11020 11021 11021 11021 11021 11022 11022 11022 11022 11022 11022 11022 11022 11022 11021 11021 11021 11020 11020 11019 11019 11018 11018 11018 11017 11017 11016 11016 11015 11014 11014 11013 11013 11012 11011 11010 11010 11009 11009 11009 11008 11007 11007 11006
10995 10996 10996 10997 10997 10998 10998 10999 11000 11001 11002 11003 11003 11004 11004 11005 11006 11006 11007 11007 11008 11008 11009 11010 11010 11011 11011 11012 11013 11013 11014 11014 11015 11015 11016 11016 11017 11017 11018 11019 11019 11020 11020 11021 11021 11021 11021 11022 11022 11022 11022 11022 11022 11021 11021 11021 11021 11020 11020 11020 11019 11018 11018 11017 11017 11017 11016 11016 11015 11014 11014 11013 11012 11012 11012 11011 11010 11010 11009 11008 11008 11008 11007 11007 11007
10994 10995 10996 10996 10996 10997 10997 10998 10999 11000 11001 11002 11003 11003 11004 11005 11005 11006 11007 11007 11007 11008 11008 11009 11009 11010 11010 11011 11012 11012 11013 11013 11014 11014 11015 11015 11016 11016 11017 11018 11018 11019 11019 11020 11020 11020 11021 11021 11021 11021 11021 11021 11021 11021 11020 11020 11020 11020 11020 11020 11019 11018 11017 11017 11016 11016 11015 11015 11015 11014 11013 11012 11011 11011 11011 11010 11010 11009 11008 11008 11007 11007 11007 11007 11006
10993 10994 10995 10995 10995 10995 10996 10996 10997 10999 11000 11001 11002 11003 11003 11004 11005 11006 11006 11007 11007 11008 11008 11008 11009 11009 11010 11010 11011 11011 11012 11012 11013 11013 11014 11015 11015 11016 11017 11018 11018 11019 11019 11019 11019 11019 11020 11020 11020 11020 11020 11020 11020 11020 11019 11019 11019 11019 11019 11019 11018 11017 11017 11016 11016 11015 11014 11014 11013 11013 11012 11011 11011 11010 11009 11009 11009 11008 11008 11007 11007 11006 11006 11006 11006
10990 10991 10992 10993 10993 10993 10994 10995 10996 10997 10998 10999 11001 11002 11003 11003 11004 11005 11006 11006 11007 11008 11008 11008 11008 11009 11009 11010 11010 11010 11011 11011 11012 11012 11013 11013 11014 11015 11016 11017 11018 11019 11019 11019 11019 11019 11019 11019 11019 11018 11018 11018 11018 11018 11018 11018 11018 11018 11017 11017 11017 11017 11016 11015 11015 11014 11013 11013 11012 11012 11011 11010 11010 11009 11008 11008 11008 11007 11007 11007 11006 11005 11005 11005 11005
10986 10987 10988 10989 10990 10991 10992 10993 10994 10995 10996 10997 10998 10999 11001 11002 11003 11004 11004 11005 11006 11006 11007 11008 11008 11008 11009 11009 11009 11009 11009 11010 11010 11010 11011 11011 11012 11013 11013 11014 11016 11017 11017 11017 11018 11018 11018 11018 11017 11017 11017 11016 11016 11016 11016 11016 11016 11016 11016 11016 11015 11015 11015 11014 11013 11013 11012 11011 11011 11010 11010 11009 11008 11008 11007 11006 11006 11006 11006 11006 11005 11005 11004 11005 11005
10983 10984 10985 10986 10987 10989 10990 10991 10992 10993 10994 10995 10996 10996 10997 10998 11000 11001 11002 11003 11004 11005 11005 11006 11006 11007 11008 11008 11009 11009 11009 11009 11009 11009 11009 11009 11010 11010 11011 11012 11012 11013 11013 11014 11015 11016 11017 11016 11015 11015 11014 11014 11014 11014 11014 11014 11014 11014 11014 11013 11013 11013 11013 11012 11012 11011 11010 11010 11009 11009 11008 11007 11007 11006 11006 11005 11005 11004 11004 11004 11004 11004 11003 11003 11004
10981 10982 10982 10983 10985 10986 10987 10988 10989 10990 10992 10993 10993 10994 10995 10995 10996 10997 10998 11000 11001 11002 11003 11004 11004 11005 11006 11007 11007 11007 11007 11007 11007 11007 11007 11007 11007 11007 11008 11009 11009 11010 11011 11011 11012 11013 11014 11013 11013 11013 11012 11012 11012 11012 11012 11012 11011 11011 11011 11011 11011 11011 11011 11010 11010 11009 11009 11008 11007 11007 11006 11006 11005 11004 11004 11003 11003 11003 11003 11003 11003 11002 11002 11002 11002
10977 10978 10979 10980 10982 10983 10984 10985 10986 10987 10988 10989 10990 10991 10993 10994 10995 10995 10996 10996 10997 10999 11000 11001 11002 11002 11003 11004 11004 11005 11005 11005 11004 11004 11004 11004 11004 11005 11005 11006 11006 11006 11007 11008 11009 11010 11010 11010 11011 11010 11010 11010 11010 11009 11009 11009 11009 11009 11009 11009 11009 11009 11008 11008 11008 11007 11007 11006 11005 11004 11004 11003 11003 11002 11002 11001 11001 11001 11001 11001 11001 11000 11000 11000 10999
10972 10974 10976 10977 10978 10980 10982 10983 10984 10984 10985 10986 10987 10988 10989 10991 10992 10993 10993 10993 10994 10995 10995 10997 10998 10999 10999 11000 11001 11002 11002 11002 11002 11001 11002 11002 11002 11002 11002 11003 11003 11003 11004 11004 11005 11005 11006 11006 11007 11007 11007 11007 11006 11006 11006 11006 11006 11006 11006 11006 11006 11006 11005 11005 11005 11004 11004 11003 11003 11002 11001 11001 11000 11000 10999 10999 10999 10998 10998 10998 10998 10998 10998 10998 10997
10969 10971 10972 10974 10975 10976 10978 10979 10979 10980 10982 10983 10984 10985 10986 10987 10988 10989 10990 10991 10991 10991 10992 10992 10993 10994 10995 10996 10997 10998 10998 10998 10999 10999 10999 10999 10999 10999 10999 10999 10999 11000 11000 11000 11001 11001 11002 11002 11002 11003 11003 11003 11003 11003 11003 11003 11002 11002 11002 11002 11003 11002 11002 11002 11002 11001 11001 11000 11000 10999 10999 10998 10998 10997 10997 10997 10996 10996 10996 10995 10995 10995 10995 10995 10995
10965 10967 10968 10969 10970 10971 10973 10974 10974 10976 10977 10979 10981 10982 10982 10983 10984 10985 10986 10987 10988 10988 10989 10990 10990 10990 10991 10992 10993 10994 10994 10995 10995 10995 10995 10995 10995 10995 10995 10995 10995 10995 10995 10996 10996 10997 10997 10997 10998 10998 10998 10998 10998 10998 10998 10999 10998 10998 10998 10998 10998 10998 10998 10998 10998 10997 10997 10996 10996 10996 10995 10994 10994 10994 10993 10993 10993 10993 10992 10992 10992 10992 10992 10992 10992
10960 10961 10963 10964 10964 10966 10968 10969 10969 10971 10973 10975 10976 10977 10978 10979 10980 10981 10981 10981 10982 10984 10985 10985 10985 10986 10987 10987 10988 10989 10989 10990 10991 10990 10990 10990 10990 10990 10990 10990 10990 10990 10991 10991 10992 10992 10992 10993 10994 10994 10994 10993 10993 10993 10993 10994 10994 10994 10994 10994 10994 10994 10993 10993 10993 10992 10992 10992 10992 10991 10991 10990 10990 10989 10989 10989 10989 10989 10989 10988 10988 10988 10988 10988 10988
10954 10955 10957 10958 10959 10961 10963 10964 10964 10966 10968 10969 10970 10971 10972 10973 10975 10975 10975 10975 10976 10978 10978 10979 10979 10981 10982 10983 10983 10983 10983 10984 10984 10984 10984 10985 10985 10985 10985 10985 10985 10986 10986 10987 10987 10987 10987 10988 10989 10989 10989 10989 10989 10989 10989 10989 10989 10989 10989 10989 10989 10989 10988 10987 10987 10987 10987 10987 10987 10987 10986 10985 10985 10985 10985 10984 10984 10984 10984 10984 10984 10984 10983 10983 10983
10949 10949 10950 10952 10953 10954 10956 10958 10959 10961 10963 10963 10964 10965 10965 10967 10968 10969 10970 10970 10971 10971 10972 10973 10974 10975 10976 10978 10978 10978 10978 10978 10978 10978 10979 10979 10979 10979 10979 10980 10980 10980 10981 10982 10982 10982 10983 10983 10984 10984 10984 10984 10984 10984 10984 10984 10984 10984 10984 10984 10984 10983 10982 10982 10982 10981 10981 10981 10981 10981 10981 10980 10980 10979 10979 10979 10979 10979 10979 10978 10978 10978 10978 10978 10978
10943 10943 10943 10945 10946 10948 10950 10952 10954 10956 10956 10956 10957 10958 10959 10960 10962 10963 10964 10965 10965 10965 10966 10967 10967 10968 10969 10971 10972 10973 10973 10972 10971 10972 10973 10973 10973 10973 10973 10973 10974 10974 10975 10976 10976 10977 10977 10978 10978 10978 10979 10979 10979 10979 10979 10979 10979 10979 10978 10979 10979 10978 10977 10977 10976 10976 10976 10976 10977 10976 10975 10974 10974 10973 10973 10973 10973 10973 10973 10973 10972 10972 10972 10972 10972
10935 10936 10936 10938 10940 10941 10943 10945 10947 10948 10949 10949 10950 10951 10952 10954 10955 10957 10957 10958 10959 10959 10959 10960 10961 10961 10962 10964 10965 10966 10967 10966 10965 10965 10966 10967 10967 10967 10967 10967 10967 10968 10969 10969 10969 10970 10971 10972 10972 10972 10973 10973 10973 10973 10973 10973 10973 10973 10974 10974 10974 10973 10973 10973 10972 10972 10971 10971 10971 10970 10969 10968 10968 10967 10967 10967 10966 10966 10966 10966 10966 10966 10966 10966 10965
10927 10927 10928 10931 10933 10934 10936 10939 10940 10940 10941 10942 10942 10943 10944 10946 10948 10949 10950 10951 10952 10952 10952 10954 10955 10955 10955 10956 10957 10958 10960 10959 10958 10958 10959 10960 10960 10961 10961 10961 10961 10961 10962 10963 10963 10963 10964 10965 10966 10966 10966 10966 10966 10966 10966 10967 10967 10967 10968 10967 10966 10966 10967 10967 10967 10967 10966 10965 10965 10964 10964 10963 10962 10961 10961 10961 10960 10960 10959 10959 10958 10958 10959 10959 10959
10920 10921 10922 10925 10927 10929 10930 10932 10933 10933 10933 10934 10935 10936 10937 10938 10939 10940 10942 10943 10944 10945 10945 10946 10948 10948 10948 10949 10949 10950 10952 10951 10950 10951 10953 10953 10953 10954 10955 10955 10955 10955 10955 10956 10956 10957 10957 10958 10959 10959 10959 10959 10958 10959 10959 10959 10959 10959 10959 10959 10958 10959 10959 10960 10960 10960 10960 10958 10957 10957 10956 10956 10955 10955 10954 10954 10954 10953 10953 10952 10951 10950 10950 10950 10950
10913 10914 10916 10918 10920 10922 10924 10925 10925 10925 10925 10926 10927 10928 10929 10930 10931 10932 10933 10935 10936 10937 10937 10938 10940 10941 10942 10942 10941 10942 10943 10943 10942 10944 10946 10947 10947 10947 10947 10947 10947 10948 10949 10950 10950 10950 10950 10951 10951 10951 10951 10951 10950 10951 10951 10951 10951 10951 10951 10951 10951 10951 10951 10952 10952 10952 10951 10950 10948 10947 10947 10947 10948 10948 10947 10947 10946 10946 10945 10945 10944 10943 10942 10941 10941
10905 10907 10908 10910 10913 10915 10916 10917 10917 10917 10917 10917 10918 10919 10920 10921 10922 10923 10924 10926 10927 10928 10929 10929 10931 10933 10934 10934 10934 10934 10934 10935 10935 10936 10938 10939 10940 10940 10939 10939 10939 10940 10941 10942 10943 10943 10943 10943 10943 10942 10943 10943 10942 10943 10944 10944 10945 10945 10944 10944 10944 10944 10943 10943 10943 10942 10941 10940 10939 10938 10937 10937 10938 10938 10938 10938 10938 10938 10937 10937 10936 10935 10934 10933 10932
10897 10899 10901 10903 10905 10907 10908 10908 10908 10908 10909 10910 10910 10911 10912 10913 10914 10915 10916 10917 10918 10920 10921 10921 10922 10924 10925 10926 10926 10926 10926 10927 10928 10929 10930 10931 10931 10931 10931 10931 10931 10932 10932 10934 10935 10935 10935 10935 10935 10934 10934 10934 10934 10935 10936 10936 10937 10938 10938 10937 10936 10935 10935 10934 10934 10933 10932 10931 10930 10929 10928 10928 10928 10928 10928 10927 10927 10927 10927 10927 10927 10926 10925 10924 10923
10888 10891 10893 10895 10896 10898 10899 10899 10900 10901 10901 10901 10902 10904 10904 10905 10906 10907 10908 10909 10910 10911 10912 10913 10914 10916 10916 10917 10917 10917 10917 10918 10920 10921 10921 10921 10922 10922 10923 10923 10923 10923 10923 10924 10925 10926 10926 10926 10926 10926 10925 10925 10925 10925 10926 10926 10927 10928 10929 10928 10927 10926 10925 10925 10924 10923 10922 10921 10921 10920 10919 10919 10918 10917 10917 10916 10916 10916 10916 10916 10915 10915 10914 10914 10913
10880 10882 10884 10885 10887 10888 10889 10890 10891 10892 10892 10893 10893 10895 10896 10897 10898 10898 10899 10901 10902 10903 10903 10904 10905 10906 10907 10907 10908 10909 10909 10909 10910 10911 10912 10912 10913 10913 10914 10914 10914 10914 10914 10915 10916 10917 10916 10916 10917 10916 10916 10916 10915 10915 10916 10916 10917 10917 10917 10917 10917 10916 10915 10914 10913 10912 10912 10911 10911 10910 10910 10909 10907 10906 10906 10905 10905 10904 10904 10904 10903 10903 10902 10902 10901
10870 10872 10874 10876 10877 10878 10879 10881 10882 10882 10883 10884 10884 10885 10886 10887 10889 10889 10890 10891 10892 10893 10894 10895 10896 10897 10897 10898 10899 10899 10900 10900 10901 10902 10903 10903 10904 10904 10905 10905 10905 10904 10904 10905 10907 10907 10907 10907 10907 10906 10906 10906 10905 10905 10905 10905 10906 10906 10906 10906 10905 10904 10904 10903 10902 10901 10900 10899 10899 10898 10898 10897 10896 10895 10894 10893 10892 10892 10892 10891 10891 10891 10891 10890 10889
10860 10862 10865 10866 10868 10869 10870 10871 10872 10873 10873 10874 10875 10875 10876 10877 10879 10880 10880 10881 10881 10882 10884 10885 10886 10887 10887 10887 10888 10889 10889 10890 10891 10892 10893 10894 10894 10895 10895 10895 10895 10895 10895 10895 10896 10896 10896 10897 10897 10897 10897 10896 10895 10895 10894 10894 10894 10894 10894 10894 10893 10893 10892 10892 10891 10890 10889 10888 10887 10886 10885 10885 10884 10883 10882 10881 10880 10880 10879 10879 10879 10879 10878 10878 10877
10850 10852 10854 10856 10858 10859 10860 10861 10862 10863 10864 10864 10865 10865 10866 10867 10868 10869 10870 10871 10871 10871 10872 10873 10875 10876 10876 10877 10877 10878 10878 10879 10881 10881 10882 10883 10884 10884 10885 10885 10885 10885 10885 10885 10885 10885 10885 10886 10886 10886 10886 10886 10885 10885 10884 10883 10882 10882 10882 10882 10881 10881 10880 10879 10879 10878 10877 10876 10875 10874 10873 10872 10871 10870 10869 10868 10868 10867 10866 10866 10866 10865 10865 10865 10864
10839 10841 10844 10845 10847 10848 10850 10851 10851 10852 10853 10854 10854 10855 10855 10856 10857 10858 10859 10860 10860 10861 10861 10862 10862 10864 10865 10866 10866 10866 10867 10868 10869 10870 10871 10871 10872 10873 10873 10873 10874 10874 10874 10875 10874 10874 10874 10874 10874 10874 10874 10874 10873 10873 10872 10871 10870 10869 10869 10868 10868 10867 10867 10866 10865 10865 10864 10863 10862 10861 10860 10859 10857 10856 10855 10854 10853 10853 10852 10851 10851 10851 10850 10850 10849
10828 10830 10832 10834 10836 10837 10838 10839 10840 10841 10842 10843 10843 10844 10844 10845 10845 10846 10847 10848 10849 10850 10850 10850 10850 10851 10852 10854 10854 10855 10855 10856 10857 10857 10858 10859 10859 10860 10860 10860 10861 10862 10863 10863 10863 10863 10862 10862 10861 10861 10861 10861 10861 10860 10860 10859 10858 10857 10855 10854 10853 10852 10852 10851 10850 10850 10850 10849 10848 10847 10845 10844 10843 10842 10841 10840 10839 10837 10837 10836 10835 10834 10833 10832 10831
10815 10817 10819 10821 10823 10825 10827 10828 10828 10829 10830 10831 10831 10832 10833 10833 10834 10834 10835 10836 10837 10837 10838 10838 10838 10838 10839 10840 10841 10842 10843 10844 10844 10845 10845 10846 10846 10846 10846 10847 10847 10848 10849 10850 10850 10850 10850 10850 10849 10849 10848 10848 10848 10847 10847 10846 10845 10843 10842 10841 10840 10838 10837 10836 10835 10834 10833 10833 10832 10831 10830 10829 10827 10826 10825 10824 10823 10823 10822 10822 10820 10818 10816 10815 10814
10803 10805 10807 10808 10810 10812 10814 10815 10816 10817 10818 10818 10819 10820 10820 10821 10822 10822 10822 10823 10824 10824 10825 10825 10825 10825 10825 10826 10827 10828 10829 10830 10831 10832 10832 10832 10832 10832 10832 10833 10833 10834 10835 10835 10836 10836 10837 10837 10837 10836 10835 10835 10834 10833 10832 10832 10830 10829 10828 10826 10825 10824 10823 10822 10820 10819 10818 10817 10817 10816 10815 10813 10811 10809 10808 10807 10806 10806 10807 10805 10803 10801 10800 10799 10797
10792 10794 10795 10797 10798 10799 10801 10802 10803 10804 10805 10805 10806 10806 10807 10808 10809 10809 10810 10810 10811 10812 10812 10813 10813 10812 10812 10812 10813 10813 10814 10815 10816 10818 10818 10819 10819 10819 10818 10818 10818 10819 10819 10819 10820 10821 10821 10822 10822 10822 10821 10820 10819 10818 10818 10817 10816 10814 10813 10812 10810 10809 10808 10807 10805 10804 10803 10802 10801 10800 10799 10797 10795 10793 10792 10791 10791 10790 10790 10788 10785 10783 10782 10781 10780
10780 10782 10783 10784 10785 10786 10787 10788 10789 10790 10790 10791 10792 10792 10793 10794 10795 10795 10796 10796 10797 10797 10798 10799 10800 10800 10799 10799 10799 10799 10799 10800 10802 10803 10804 10804 10804 10804 10804 10803 10803 10803 10803 10803 10803 10804 10804 10805 10805 10805 10805 10804 10804 10803 10802 10802 10801 10799 10798 10797 10795 10794 10792 10791 10789 10788 10787 10786 10784 10783 10782 10781 10778 10776 10775 10774 10774 10773 10772 10770 10768 10766 10764 10762 10761
10767 10768 10769 10769 10770 10771 10772 10773 10773 10774 10775 10776 10777 10778 10778 10779 10779 10780 10781 10781 10782 10782 10783 10784 10785 10786 10785 10785 10784 10784 10785 10786 10787 10788 10789 10789 10789 10789 10788 10788 10787 10787 10787 10787 10787 10787 10787 10787 10786 10786 10786 10786 10786 10786 10785 10785 10784 10783 10781 10780 10779 10778 10776 10775 10773 10772 10770 10769 10767 10766 10765 10763 10761 10759 10757 10755 10754 10753 10752 10750 10748 10746 10744 10742 10740
10752 10753 10753 10754 10755 10756 10757 10758 10758 10758 10759 10760 10761 10761 10762 10763 10763 10764 10765 10766 10767 10768 10768 10769 10770 10770 10770 10769 10768 10768 10769 10770 10771 10773 10774 10774 10774 10774 10773 10771 10771 10771 10771 10771 10770 10770 10769 10769 10768 10768 10768 10767 10767 10766 10766 10765 10765 10764 10763 10762 10761 10760 10759 10757 10756 10754 10753 10751 10750 10748 10746 10744 10742 10740 10738 10736 10734 10733 10731 10730 10728 10726 10724 10722 10720
10738 10739 10739 10740 10740 10741 10742 10742 10743 10743 10743 10744 10745 10745 10745 10746 10746 10747 10748 10750 10751 10752 10753 10753 10753 10753 10754 10754 10753 10752 10753 10753 10755 10756 10757 10758 10758 10757 10756 10754 10754 10754 10754 10753 10753 10752 10751 10751 10751 10750 10750 10749 10749 10748 10747 10746 10745 10744 10743 10742 10742 10741 10740 10739 10738 10736 10735 10733 10731 10729 10727 10725 10723 10722 10719 10717 10714 10713 10711 10709 10707 10706 10704 10702 10699
10724 10725 10725 10726 10726 10726 10726 10726 10727 10727 10727 10727 10728 10729 10729 10729 10730 10730 10731 10732 10733 10735 10735 10736 10736 10736 10737 10737 10737 10736 10736 10736 10737 10738 10739 10741 10741 10740 10739 10738 10737 10737 10736 10735 10734 10733 10733 10732 10732 10731 10731 10731 10730 10730 10728 10727 10726 10725 10724 10724 10723 10722 10720 10719 10718 10717 10715 10714 10712 10710 10708 10705 10704 10702 10700 10697 10694 10692 10690 10688 10686 10685 10683 10681 10679
10709 10710 10710 10711 10711 10711 10711 10711 10711 10710 10710 10710 10710 10711 10712 10712 10712 10713 10713 10714 10715 10716 10717 10717 10718 10718 10719 10719 10719 10719 10719 10718 10718 10719 10721 10722 10722 10721 10721 10720 10719 10719 10718 10717 10715 10714 10713 10713 10713 10712 10712 10712 10711 10710 10709 10708 10707 10706 10706 10705 10704 10703 10701 10699 10698 10697 10695 10694 10692 10690 10688 10686 10684 10682 10679 10676 10674 10672 10670 10667 10665 10663 10661 10659 10657
10693 10694 10694 10695 10695 10694 10694 10694 10694 10693 10693 10692 10692 10692 10693 10693 10694 10694 10695 10695 10696 10697 10698 10698 10698 10699 10699 10700 10700 10700 10700 10700 10700 10701 10701 10701 10700 10700 10701 10701 10701 10700 10698 10697 10695 10694 10693 10693 10693 10693 10692 10692 10691 10690 10689 10688 10687 10687 10686 10685 10684 10683 10680 10678 10677 10676 10675 10673 10671 10669 10667 10665 10663 10661 10658 10655 10652 10650 10648 10645 10643 10640 10638 10636 10633
10678 10678 10678 10677 10677 10676 10676 10676 10676 10675 10675 10674 10674 10674 10674 10675 10675 10675 10676 10676 10677 10678 10678 10678 10679 10679 10679 10679 10679 10680 10680 10681 10680 10680 10679 10679 10679 10679 10679 10680 10679 10678 10677 10675 10675 10674 10673 10672 10671 10671 10670 10670 10669 10669 10668 10667 10667 10667 10666 10664 10663 10661 10659 10656 10655 10653 10652 10651 10649 10647 10644 10642 10640 10638 10634 10631 10628 10626 10623 10621 10619 10616 10614 10611 10609
10661 10661 10660 10659 10659 10658 10658 10657 10657 10656 10656 10655 10655 10655 10655 10656 10656 10657 10657 10657 10658 10658 10658 10658 10659 10659 10659 10658 10659 10659 10659 10659 10659 10659 10658 10658 10658 10658 10658 10657 10655 10654 10653 10653 10653 10652 10650 10649 10648 10647 10647 10647 10646 10645 10645 10645 10644 10644 10642 10641 10639 10638 10636 10634 10631 10630 10628 10627 10625 10623 10621 10619 10616 10613 10610 10607 10604 10602 10599 10596 10594 10591 10588 10586 10583
10643 10643 10642 10642 10641 10640 10639 10638 10637 10636 10636 10635 10635 10635 10635 10636 10637 10638 10639 10639 10638 10638 10637 10638 10638 10637 10637 10637 10637 10637 10637 10637 10637 10637 10637 10637 10636 10636 10635 10633 10631 10630 10630 10630 10629 10628 10627 10625 10625 10624 10624 10623 10623 10622 10621 10620 10620 10619 10617 10616 10615 10613 10611 10609 10607 10605 10604 10602 10600 10598 10596 10594 10591 10588 10586 10583 10581 10578 10576 10573 10570 10567 10564 10561 10559
10626 10625 10625 10624 10623 10622 10620 10619 10618 10617 10616 10615 10615 10615 10615 10615 10616 10617 10618 10619 10619 10618 10617 10617 10616 10615 10615 10614 10614 10614 10614 10614 10614 10614 10614 10614 10613 10612 10611 10609 10608 10607 10607 10606 10605 10604 10603 10602 10601 10599 10599 10598 10598 10598 10597 10596 10595 10594 10593 10592 10591 10589 10587 10585 10583 10581 10578 10576 10574 10572 10570 10568 10565 10563 10561 10558 10556 10554 10551 10549 10546 10544 10541 10538 10535
10608 10607 10607 10606 10604 10603 10602 10600 10599 10598 10596 10595 10595 10595 10595 10595 10596 10596 10596 10596 10596 10596 10596 10595 10594 10593 10592 10591 10590 10590 10590 10590 10590 10589 10589 10588 10588 10587 10586 10585 10584 10583 10582 10582 10581 10580 10579 10578 10576 10575 10573 10572 10572 10571 10571 10570 10570 10569 10569 10568 10567 10565 10563 10561 10558 10556 10554 10551 10549 10546 10544 10542 10540 10537 10534 10532 10530 10528 10526 10523 10521 10518 10516 10513 10510
10592 10591 10589 10588 10587 10586 10584 10582 10581 10579 10578 10577 10576 10576 10575 10575 10576 10575 10575 10574 10574 10573 10573 10572 10571 10570 10569 10568 10567 10566 10566 10566 10565 10564 10563 10562 10561 10561 10560 10560 10559 10558 10557 10557 10556 10555 10554 10552 10551 10550 10549 10547 10546 10545 10544 10544 10545 10545 10544 10543 10541 10539 10537 10535 10533 10530 10528 10526 10524 10521 10519 10517 10514 10512 10510 10508 10505 10503 10500 10498 10496 10493 10491 10488 10486